Location: Morisset
(33.1080°S, 151.4871°E)
Time: 08:04:11
(UTC+00:00)

Cosmos 1953 - Pass Details

Date: 29 October 2020
Orbit: 540 x 556 km, 82.5° (Epoch: 27 November)

Event Time Altitude Azimuth Distance (km) Brightness Sun altitude
Rises 18:17:43 0° 351° (N) 2,727 5.6 -8.5°
Reaches altitude 10° 18:19:52 10° 349° (NNW) 1,841 4.7 -8.1°
Maximum altitude 18:23:56 73° 263° (W) 591 2.3 -7.3°
Drops below altitude 10° 18:28:02 10° 178° (S) 1,867 5.4 -6.5°
Sets 18:30:14 0° 176° (S) 2,769 6.3 -6.1°
